WetterOnline ( https://www.wetteronline.de )

Wetter aktuell Küchelscheid

Aktuelles Wetter: Elsenborn (570m)

6-stündlich | Neueste Meldungen
Ortszeit Temperatur Wetter
So, 23.01. 19:00 0.5° C bedeckt
So, 23.01. 13:00 1.4° C bedeckt
So, 23.01. 7:00 0.6° C bedeckt
So, 23.01. 1:00 0.9° C bedeckt
Sa, 22.01. 19:00 1.3° C Sprühregen
Sa, 22.01. 13:00 1.7° C bedeckt
Sa, 22.01. 7:00 0.3° C leichter Regen
Sa, 22.01. 1:00 0.0° C bedeckt
Ortszeit Temperatur Wetter
Mo, 24.01. 0:00 0.0° C bedeckt
So, 23.01. 23:00 0.1° C bedeckt
So, 23.01. 22:00 0.2° C bedeckt
So, 23.01. 21:00 0.1° C bedeckt
So, 23.01. 20:00 0.4° C bedeckt
So, 23.01. 19:00 0.5° C bedeckt
Ortszeit Relative Feuchte Sichtweite
So, 23.01. 19:00 88% 19 km
So, 23.01. 13:00 86% 19 km
So, 23.01. 7:00 96% 7 km
So, 23.01. 1:00 97% 4.2 km
Sa, 22.01. 19:00 100% 1.0 km
Sa, 22.01. 13:00 100% 2.5 km
Sa, 22.01. 7:00 100% 100 m
Sa, 22.01. 1:00 99% 1.6 km
Ortszeit Relative Feuchte Sichtweite
Mo, 24.01. 0:00 92% 12 km
So, 23.01. 23:00 92% 10 km
So, 23.01. 22:00 92% 10 km
So, 23.01. 21:00 90% 18 km
So, 23.01. 20:00 89% 17 km
So, 23.01. 19:00 88% 19 km
Ortszeit Niederschlagsmenge Niederschlagsart
So, 23.01. 19:00 0.0 l/m2 in 12 Std. -
So, 23.01. 13:00 0.0 l/m2 in 6 Std. -
So, 23.01. 7:00 0.1 l/m2 in 12 Std. Sprühregen
So, 23.01. 1:00 0.1 l/m2 in 6 Std. Regen
Sa, 22.01. 19:00 0.1 l/m2 in 12 Std. Regen
Sa, 22.01. 13:00 0.0 l/m2 in 6 Std. Regen
Sa, 22.01. 7:00 0.3 l/m2 in 12 Std. Schnee, Regen
Sa, 22.01. 1:00 0.3 l/m2 in 6 Std. Schnee, Regen
Ortszeit Niederschlagsmenge Niederschlagsart
Mo, 24.01. 0:00 keine Meldung -
So, 23.01. 23:00 keine Meldung -
So, 23.01. 22:00 keine Meldung -
So, 23.01. 21:00 keine Meldung -
So, 23.01. 20:00 keine Meldung -
So, 23.01. 19:00 keine Meldung -
Ortszeit Stärke Spitze Richtung
km/h Bft. km/h Grad Sektor
So, 23.01. 19:00 7 2 18 120° SO
So, 23.01. 13:00 4 1 14 uml. uml.
So, 23.01. 7:00 7 2 14 20° N
So, 23.01. 1:00 4 1 18 uml. uml.
Sa, 22.01. 19:00 11 2 25 320° NW
Sa, 22.01. 13:00 11 2 22 310° NW
Sa, 22.01. 7:00 11 2 29 320° NW
Sa, 22.01. 1:00 14 3 32 300° NW
Ortszeit Stärke Spitze Richtung
km/h Bft. km/h Grad Sektor
Mo, 24.01. 0:00 11 2 22 150° SO
So, 23.01. 23:00 11 2 22 140° SO
So, 23.01. 22:00 11 2 25 140° SO
So, 23.01. 21:00 11 2 25 120° SO
So, 23.01. 20:00 7 2 18 120° SO
So, 23.01. 19:00 7 2 18 120° SO
Ortszeit Untergrenze Bedeckung Gattung
total tief tief mittel hoch
So, 23.01. 19:00 360 m - 8/8 - - -
So, 23.01. 13:00 330 m - 8/8 - - -
So, 23.01. 7:00 210 m - 8/8 - - -
So, 23.01. 1:00 210 m - 8/8 - - -
Sa, 22.01. 19:00 60 m - 8/8 - - -
Sa, 22.01. 13:00 60 m - 8/8 - - -
Sa, 22.01. 7:00 60 m - 8/8 - - -
Sa, 22.01. 1:00 60 m - 8/8 - - -
Ortszeit Bedeckungsgrad in Achtel und Wolkenuntergrenze
Mo, 24.01. 0:00 8(240m)
So, 23.01. 23:00 8(210m)
So, 23.01. 22:00 8(240m)
So, 23.01. 21:00 8(300m)
So, 23.01. 20:00 8(330m)
So, 23.01. 19:00 8(360m)
Ortszeit Luftdruck NN (hPa) Tendenz (hPa in 3 Std.)
So, 23.01. 19:00 1036 - 0,2
So, 23.01. 13:00 1037 - 0,2
So, 23.01. 7:00 1036 0,0
So, 23.01. 1:00 1036 0,0
Sa, 22.01. 19:00 1036 + 0,6
Sa, 22.01. 13:00 1035 0,0
Sa, 22.01. 7:00 1035 + 0,2
Sa, 22.01. 1:00 1035 - 0,4
Ortszeit Luftdruck NN (hPa) Tendenz (hPa in 3 Std.)
Mo, 24.01. 0:00 1036 0,0
So, 23.01. 23:00 1036 - 0,2
So, 23.01. 22:00 1036 - 0,3
So, 23.01. 21:00 1036 - 0,4
So, 23.01. 20:00 1036 - 0,2
So, 23.01. 19:00 1036 - 0,2
Ortszeit Schneehöhe (cm)
So, 23.01. 19:00 -
So, 23.01. 13:00 -
So, 23.01. 7:00 -
So, 23.01. 1:00 -
Sa, 22.01. 19:00 -
Sa, 22.01. 13:00 -
Sa, 22.01. 7:00 -
Sa, 22.01. 1:00 -
Ortszeit Schneehöhe (cm)
Mo, 24.01. 0:00 -
So, 23.01. 23:00 -
So, 23.01. 22:00 -
So, 23.01. 21:00 -
So, 23.01. 20:00 -
So, 23.01. 19:00 -
Link zu dieser Seite / Seite empfehlen

Das Wetter in ...